Regional Weather Roundup
Issued by NWS Sterling, VA

Home | Current Version | Previous Version | Text Only | Print | Product List | Glossary On
Versions: 1 2 3 4 5 6 7 8 9 10 11 12 13 14 15 16 17 18 19 20 21 22 23 24 25 26 27 28 29 30 31 32 33 34 35 36 37 38 39 40 41 42 43 44 45 46 47 48 49 50
000
ASUS41 KLWX 232210
RWRLWX

REGIONAL WEATHER ROUNDUP
NATIONAL WEATHER SERVICE BALTIMORE MD/WASHINGTON DC
600 PM EDT WED JUL 23 2014

Note: "FAIR" indicates few or no clouds below 12,000 feet
with no significant weather and/or obstructions to visibility.
 TC=TEMPERATURE CELSIUS

 * =Non NWS site. Station does not report precipitation (e.g. rain,
    snow, etc.), thunder, or fog.

DCZ001-MDZ009-015-VAZ040>042-051-053>054-232300-
WASHINGTON METRO
  /KDAA//-FT BELVOIR

CITY           SKY/WX    TMP DP  RH WIND       PRES   REMARKS
WASHINGTON NAT MOSUNNY   93  69  45 S14G21    29.80F HX  98
DULLES         PTSUNNY   88  70  55 SW9       29.81F HX  93
ANDREWS AFB    MOSUNNY   90  72  55 S14       29.82F HX  97
QUANTICO       PTSUNNY   89  76  65 S6        29.82F HX 100
COLLEGE PARK*  MOSUNNY   93  68  43 S7G17     29.79F HX  97
LEESBURG*      SUNNY     90  72  55 SW10      29.83F HX  96
MANASSAS*      SUNNY     91  73  55 S10       29.83F HX 100
GAITHERSBURG*  MOSUNNY   90  72  55 S10G16    29.86F HX  96

$$

MDZ006>007-011-014-232300-
BALTIMORE METRO

CITY           SKY/WX    TMP DP  RH WIND       PRES   REMARKS
BWI AIRPORT    MOSUNNY   91  67  44 SW12G17   29.79F HX  94
MD SCIENCE CTR   N/A     93  66  40 MISG      29.79F HX  96
MARTIN STATE   MOSUNNY   88  79  74 SE14      29.80F HX 102
ANNAPOLIS      MOSUNNY   85  75  72 S15G23    29.80F HX  93
FORT MEADE*    SUNNY     86  68  54 SW8       29.82F

$$

MDZ012-015-019>023-232300-
MARYLAND EASTERN SHORE

CITY           SKY/WX    TMP DP  RH WIND       PRES   REMARKS
OCEAN CITY     SUNNY     80  74  81 S9        29.86F
SALISBURY      NOT AVBL
BAY BRIDGE AP*   N/A     88  72  58 S12       29.81F HX  94
CAMBRIDGE*     MOSUNNY   90  73  58 S9        29.83F HX  98
EASTON*        MOSUNNY   91  75  59 SW12G17   29.86F HX 102

$$

MDZ017>025-232300-
SOUTHERN MARYLAND

CITY           SKY/WX    TMP DP  RH WIND       PRES   REMARKS
PATUXENT RIVER PTSUNNY   86  76  71 SE10      29.82F HX  96
ST INIGOES     MOSUNNY   89  72  56 S8        29.82F HX  96
LEONARDTOWN*   MOSUNNY   88  70  55 S6        29.84F HX  92

$$

MDZ003>005-232300-
NORTH CENTRAL MARYLAND

CITY           SKY/WX    TMP DP  RH WIND       PRES   REMARKS
FREDERICK*     PTSUNNY   90  72  55 SW13      29.83F THUNDER HX  96
HAGERSTOWN APT CLOUDY    84  70  62 NW7       29.83R
WESTMINSTER*   MOSUNNY   90  79  70 S9        29.84R HX 105

$$

MDZ501>502-232300-
WESTERN MARYLAND

CITY           SKY/WX    TMP DP  RH WIND       PRES   REMARKS
OAKLAND*       PTSUNNY   70 N/A N/A W6        30.03F
CUMBERLAND*    PTSUNNY   84  64  51 N6        29.91F

$$

VAZ025>031-232300-
SHENANDOAH VALLEY

CITY           SKY/WX    TMP DP  RH WIND       PRES   REMARKS
WINCHESTER*    LGT RAIN  81  70  69 SW7       29.84R
STAUNTON*      MOSUNNY   87  70  57 S8        29.91S HX  92

$$

WVZ021-048>050-054>055-232300-
EASTERN WEST VIRGINIA PANHANDLE

CITY           SKY/WX    TMP DP  RH WIND       PRES   REMARKS
MARTINSBURG    MOSUNNY   80  70  71 E5        29.85S
PETERSBURG*    PTSUNNY   82  58  44 NW15G21   29.91R

$$

VAZ036>039-050-232300-
CENTRAL FOOTHILLS

CITY           SKY/WX    TMP DP  RH WIND       PRES   REMARKS
CHARLOTTESVILL PTSUNNY   87  73  62 VRB3      29.85F HX  94
ORANGE*        MOSUNNY   90  72  55 SW6       29.85F HX  96

$$

VAZ055>057-232300-
NORTH AND CENTRAL PIEDMONT

CITY           SKY/WX    TMP DP  RH WIND       PRES   REMARKS
FREDERICKSBRG* MOSUNNY   94  70  45 SW7       29.81F HX 100
STAFFORD*      MOSUNNY   90  71  53 CALM      29.86F HX  96

$$

NCZ024-NYZ072-PAZ021-071-VAZ022-071-232300-
OTHER REGIONAL OBSERVATIONS

CITY           SKY/WX    TMP DP  RH WIND       PRES   REMARKS
NEW YORK CITY  PTSUNNY   85  72  65 MISG      29.81F HX  91
PHILADELPHIA   MOSUNNY   91  69  48 S15G28    29.80F HX  96
PITTSBURGH     PTSUNNY   79  67  66 NW16      29.94F
RICHMOND       MOSUNNY   93  70  46 S13       29.84F HX  99
RALEIGH        MOSUNNY   91  70  49 SW10      29.92F HX  96

$$

ANZ530>537-232300-
MARINE OBSERVATIONS

STATION/POSITION TIME  TEMP    WIND        PRES
                       AIR SEA DIR/SP/G
                 (UTC) (F)     (DEG/KT/KT) (MB)
THOMAS PT LIGHT  2200   82 80  170/ 16/ 18 1009.7F
BALT KEY BRIDGE  2200   86     140/ 15/ 17 1008.6F
COVE POINT       2200   81     180/ 15/ 16 1010.2F
LEWISETTA        2200   89 85  200/  9/ 12 1010.2S
SOLOMONS ISLAND  2200      82                N/A
PINEY POINT      2200          220/  9/ 10   N/A

$$



USA.gov is the U.S. government's official web portal to all federal, state and local government web resources and services.